| time (UTC) | temp C | wind direction | speed KPH | gust KPH | rain 1hr cm | rain 24hr cm | rain mn cm | humidity % | barometer mb |
| 20260508121509 | 2 | 360 | 4.8 | 19.3 | 0.00 | 0.13 | 0.10 | 77 | 1024.8 |
| 20260508120045 | 2 | 360 | 6.4 | 22.5 | 0.00 | 0.13 | 0.10 | 78 | 1024.9 |
| 20260508114554 | 2 | 360 | 8.0 | 16.1 | 0.03 | 0.13 | 0.10 | 77 | 1024.9 |
| 20260508113112 | 2 | 360 | 11.3 | 19.3 | 0.03 | 0.13 | 0.10 | 81 | 1024.9 |
| 20260508111546 | 2 | 360 | 14.5 | 17.7 | 0.05 | 0.13 | 0.10 | 79 | 1024.7 |
| 20260508110054 | 2 | 360 | 6.4 | 16.1 | 0.05 | 0.13 | 0.10 | 80 | 1024.6 |
| 20260508104559 | 1 | 360 | 12.9 | 17.7 | 0.05 | 0.10 | 0.08 | 81 | 1024.7 |
| 20260508103105 | 1 | 360 | 12.9 | 20.9 | 0.05 | 0.10 | 0.08 | 81 | 1024.6 |
| 20260508101556 | 1 | 360 | 1.6 | 16.1 | 0.03 | 0.08 | 0.05 | 86 | 1024.6 |
| 20260508100058 | 1 | 360 | 9.7 | 16.1 | 0.00 | 0.05 | 0.05 | 85 | 1024.6 |
| 20260508094547 | 0 | 360 | 9.7 | 16.1 | 0.00 | 0.05 | 0.05 | 91 | 1024.5 |
| 20260508093056 | 0 | 360 | 14.5 | 29.0 | 0.00 | 0.05 | 0.05 | 96 | 1024.6 |
| 20260508091600 | 0 | 360 | 17.7 | 27.4 | 0.00 | 0.05 | 0.05 | 96 | 1024.6 |
| 20260508090106 | 0 | 360 | 12.9 | 17.7 | 0.00 | 0.05 | 0.05 | 95 | 1024.3 |
| 20260508084549 | 0 | 360 | 12.9 | 17.7 | 0.00 | 0.05 | 0.05 | 94 | 1024.2 |
| 20260508083108 | 0 | 360 | 8.0 | 16.1 | 0.00 | 0.05 | 0.05 | 95 | 1024.2 |
| 20260508081502 | 0 | 360 | 17.7 | 20.9 | 0.00 | 0.05 | 0.05 | 96 | 1024.0 |
| 20260508080104 | 0 | 360 | 8.0 | 20.9 | 0.00 | 0.05 | 0.05 | 98 | 1023.9 |
| 20260508074550 | 0 | 360 | 14.5 | 20.9 | 0.03 | 0.05 | 0.05 | 95 | 1023.9 |
| 20260508073055 | 0 | 360 | 11.3 | 19.3 | 0.03 | 0.05 | 0.05 | 97 | 1023.8 |
| 20260508071543 | 0 | 360 | 14.5 | 20.9 | 0.03 | 0.05 | 0.05 | 98 | 1023.8 |
| 20260508070006 | 0 | 360 | 11.3 | 22.5 | 0.00 | 0.05 | 0.03 | 98 | 1023.7 |
| 20260508064558 | 0 | 360 | 8.0 | 17.7 | 0.00 | 0.05 | 0.03 | 97 | 1023.5 |
| 20260508063000 | 0 | 360 | 9.7 | 16.1 | 0.00 | 0.05 | 0.03 | 98 | 1023.3 |
| 20260508061549 | 0 | 360 | 9.7 | 16.1 | 0.00 | 0.05 | 0.03 | 98 | 1023.3 |
| 20260508060049 | 0 | 360 | 6.4 | 14.5 | 0.00 | 0.05 | 0.03 | 97 | 1023.2 |
| 20260508054557 | 0 | 360 | 8.0 | 20.9 | 0.03 | 0.08 | 0.03 | 94 | 1023.0 |
| 20260508053047 | 0 | 360 | 1.6 | 6.4 | 0.03 | 0.08 | 0.03 | 93 | 1022.8 |
| 20260508051553 | 0 | 360 | 6.4 | 11.3 | 0.03 | 0.08 | 0.03 | 94 | 1022.6 |
| 20260508050058 | 0 | 360 | 8.0 | 12.9 | 0.03 | 0.08 | 0.03 | 95 | 1022.5 |
| 20260508044548 | 0 | 360 | 9.7 | 12.9 | 0.00 | 0.05 | 0.00 | 97 | 1022.4 |
| 20260508043047 | 0 | 360 | 8.0 | 14.5 | 0.00 | 0.05 | 0.00 | 99 | 1022.2 |
| 20260508041541 | 0 | 360 | 8.0 | 12.9 | 0.00 | 0.05 | 0.00 | 99 | 1022.2 |
| 20260508034543 | 0 | 360 | 4.8 | 14.5 | 0.00 | 0.05 | 0.00 | 99 | 1022.2 |
| 20260508033053 | -1 | 360 | 0.0 | 6.4 | 0.00 | 0.05 | 0.00 | 99 | 1022.0 |
| 20260508031541 | 0 | 360 | 3.2 | 4.8 | 0.00 | 0.05 | 0.00 | 98 | 1021.9 |
| 20260508030002 | 0 | 360 | 4.8 | 6.4 | 0.00 | 0.05 | 0.00 | 98 | 1021.8 |
| 20260508024549 | 0 | 360 | 6.4 | 8.0 | 0.00 | 0.05 | 0.00 | 98 | 1021.7 |
| 20260508023058 | 0 | 360 | 6.4 | 11.3 | 0.00 | 0.05 | 0.00 | 98 | 1021.6 |
| 20260508021549 | 0 | 360 | 9.7 | 14.5 | 0.00 | 0.05 | 0.00 | 98 | 1021.5 |
| 20260508020004 | 0 | 360 | 14.5 | 19.3 | 0.00 | 0.05 | 0.00 | 98 | 1021.4 |
| 20260508014550 | 0 | 360 | 11.3 | 14.5 | 0.00 | 0.05 | 0.00 | 98 | 1021.4 |
| 20260508013056 | 0 | 360 | 9.7 | 12.9 | 0.00 | 0.05 | 0.00 | 98 | 1021.3 |
| 20260508011545 | 0 | 360 | 8.0 | 11.3 | 0.00 | 0.05 | 0.00 | 99 | 1021.2 |
| 20260508010046 | -1 | 360 | 6.4 | 11.3 | 0.00 | 0.05 | 0.00 | 98 | 1021.1 |
| 20260508004610 | 0 | 360 | 8.0 | 12.9 | 0.00 | 0.05 | 0.00 | 98 | 1020.9 |
| 20260508003058 | 0 | 360 | 9.7 | 12.9 | 0.00 | 0.05 | 0.00 | 94 | 1020.9 |
| 20260508001547 | 0 | 360 | 6.4 | 11.3 | 0.00 | 0.05 | 0.00 | 93 | 1020.5 |
| 20260508000054 | 0 | 360 | 8.0 | 12.9 | 0.00 | 0.05 | 0.00 | 93 | 1020.4 |
| 20260507234546 | 0 | 360 | 4.8 | 9.7 | 0.00 | 0.05 | 0.00 | 95 | 1020.3 |
| 20260507233043 | 0 | 360 | 4.8 | 8.0 | 0.00 | 0.05 | 0.00 | 96 | 1020.3 |
| 20260507231555 | 0 | 360 | 6.4 | 14.5 | 0.00 | 0.05 | 0.00 | 97 | 1020.1 |
| 20260507230047 | 0 | 360 | 11.3 | 14.5 | 0.00 | 0.05 | 0.00 | 96 | 1020.0 |
| 20260507224553 | 0 | 360 | 6.4 | 11.3 | 0.00 | 0.05 | 0.00 | 96 | 1020.0 |
| 20260507223059 | 0 | 360 | 0.0 | 4.8 | 0.00 | 0.05 | 0.00 | 96 | 1019.9 |
| 20260507221550 | 0 | 360 | 1.6 | 6.4 | 0.00 | 0.05 | 0.00 | 93 | 1019.7 |
| 20260507220053 | 0 | 360 | 4.8 | 9.7 | 0.00 | 0.05 | 0.00 | 92 | 1019.6 |
| 20260507214619 | 0 | 360 | 3.2 | 6.4 | 0.00 | 0.05 | 0.05 | 93 | 1019.6 |
| 20260507213046 | 0 | 360 | 6.4 | 9.7 | 0.00 | 0.05 | 0.05 | 93 | 1019.5 |
| 20260507211615 | 0 | 360 | 3.2 | 6.4 | 0.00 | 0.05 | 0.05 | 92 | 1019.4 |
| 20260507210056 | 0 | 360 | 1.6 | 6.4 | 0.00 | 0.05 | 0.05 | 92 | 1019.2 |
| 20260507204542 | 0 | 360 | 3.2 | 6.4 | 0.00 | 0.05 | 0.05 | 91 | 1019.0 |
| 20260507203052 | 0 | 360 | 4.8 | 9.7 | 0.00 | 0.05 | 0.05 | 91 | 1018.9 |
| 20260507201558 | 0 | 360 | 6.4 | 9.7 | 0.00 | 0.05 | 0.05 | 90 | 1018.9 |
| 20260507200057 | 0 | 360 | 8.0 | 11.3 | 0.00 | 0.05 | 0.05 | 90 | 1018.9 |
| 20260507194617 | 0 | 360 | 8.0 | 12.9 | 0.00 | 0.05 | 0.05 | 92 | 1018.7 |
| 20260507193053 | 0 | 360 | 11.3 | 14.5 | 0.00 | 0.05 | 0.05 | 91 | 1018.6 |
| 20260507191550 | 0 | 360 | 12.9 | 17.7 | 0.00 | 0.05 | 0.05 | 90 | 1018.5 |
| 20260507190047 | 0 | 360 | 14.5 | 17.7 | 0.00 | 0.05 | 0.05 | 89 | 1018.4 |
| 20260507184605 | 0 | 360 | 11.3 | 19.3 | 0.00 | 0.05 | 0.05 | 93 | 1018.2 |
| 20260507183055 | 0 | 360 | 19.3 | 27.4 | 0.00 | 0.05 | 0.05 | 95 | 1018.1 |
| 20260507181504 | 1 | 360 | 12.9 | 20.9 | 0.00 | 0.05 | 0.05 | 85 | 1017.9 |
| 20260507180051 | 1 | 360 | 16.1 | 24.1 | 0.00 | 0.05 | 0.05 | 84 | 1017.8 |
| 20260507174601 | 1 | 360 | 20.9 | 30.6 | 0.00 | 0.05 | 0.05 | 83 | 1017.7 |
| 20260507173058 | 1 | 360 | 24.1 | 29.0 | 0.00 | 0.05 | 0.05 | 82 | 1017.6 |
| 20260507171551 | 1 | 360 | 24.1 | 33.8 | 0.00 | 0.05 | 0.05 | 79 | 1017.6 |
| 20260507164505 | 1 | 360 | 24.1 | 32.2 | 0.00 | 0.08 | 0.05 | 75 | 1017.4 |
| 20260507163004 | 1 | 360 | 22.5 | 32.2 | 0.00 | 0.08 | 0.05 | 79 | 1017.3 |
| 20260507161558 | 1 | 360 | 27.4 | 37.0 | 0.00 | 0.08 | 0.05 | 75 | 1017.2 |
| 20260507160001 | 1 | 360 | 17.7 | 29.0 | 0.00 | 0.08 | 0.05 | 76 | 1017.1 |
| 20260507154549 | 1 | 360 | 20.9 | 37.0 | 0.00 | 0.08 | 0.05 | 81 | 1017.1 |
| 20260507153054 | 1 | 360 | 22.5 | 35.4 | 0.00 | 0.08 | 0.05 | 79 | 1017.0 |
| 20260507151543 | 1 | 360 | 17.7 | 27.4 | 0.00 | 0.08 | 0.05 | 86 | 1017.0 |
| 20260507150043 | 1 | 360 | 19.3 | 30.6 | 0.00 | 0.08 | 0.05 | 84 | 1016.9 |
| 20260507144559 | 1 | 360 | 22.5 | 32.2 | 0.00 | 0.08 | 0.05 | 87 | 1016.8 |
| 20260507143004 | 1 | 360 | 19.3 | 33.8 | 0.00 | 0.08 | 0.05 | 87 | 1016.7 |
| 20260507141552 | 1 | 360 | 22.5 | 40.2 | 0.00 | 0.08 | 0.05 | 80 | 1016.6 |
| 20260507140054 | 1 | 360 | 25.7 | 35.4 | 0.00 | 0.08 | 0.05 | 84 | 1016.6 |
| 20260507134545 | 1 | 360 | 17.7 | 29.0 | 0.03 | 0.08 | 0.05 | 84 | 1016.3 |
| 20260507133002 | 1 | 360 | 22.5 | 32.2 | 0.03 | 0.08 | 0.05 | 80 | 1016.3 |
| 20260507131610 | 1 | 360 | 16.1 | 29.0 | 0.03 | 0.08 | 0.05 | 82 | 1016.2 |
| 20260507130053 | 1 | 360 | 16.1 | 24.1 | 0.03 | 0.08 | 0.05 | 84 | 1016.2 |
| 20260507124600 | 0 | 360 | 9.7 | 22.5 | 0.00 | 0.05 | 0.05 | 88 | 1016.1 |
| 20260507123056 | 0 | 360 | 12.9 | 19.3 | 0.00 | 0.05 | 0.05 | 91 | 1016.1 |